Tracking 29511 objects as of 17-Sep-2024
HD Live streaming from Space Station
objects crossing your sky now

EUROBIRD 4A(EUTELSAT W1)

Track EUROBIRD 4A(EUTELSAT W1) now!
EUROBIRD 4A(EUTELSAT W1) is classified as:


NORAD ID: 26487
Int'l Code: 2000-052A
Perigee: 36,362.5 km
Apogee: 36,418.2 km
Inclination: 10.0 °
Period: 1,466.7 minutes
Semi major axis: 42761 km
RCS: 8.6539 m2 (large)
Launch date: September 6, 2000
Source: European Telecommunications Satellite Organization (EUTE)
Launch site: FRENCH GUIANA (FRGUI)

Twenty-eight channels, Europe, Atlantic Islands, North Africa, Middle East, Central Asia.
Your satellite tracking list
Your tracking list is empty




NASA's NSSDC Master Catalog

Two Line Element Set (TLE):
1 26487U 00052A   24260.29359215 -.00000135  00000-0  00000-0 0  9994
2 26487   9.9763  51.5070 0006517 244.5798 114.5706  0.98180712 86902
Source of the keplerian elements: AFSPC